Dewpoint
73 75 73 71 73 72 73 72 71 76 75 75 71 72 71 72 70 69 66 66 66 66
74 74 73 71 71 72 74 73 73 76 76 76 73 71 71 71 69 67 68 65 66 64
74 74 74 72 73 71 73 74 76 75 75 76 75 73 74 73 70 68 66 68 65 63
75 75 74 75 75 73 71 74 75 75 75 74 76 75 74 74 73 68 68 66 65 64
73 75 74 74 74 75 73 75 76 76 76 76 76 76 75 75 71 69 69 67 66 65
73 74 74 74 73 73 73 73 75 77 77 77 76 77 76 75 74 73 70 69 67 66
72 73 73 73 73 72 74 74 74 76 76 77 77 77 77 76 75 73 72 71 69 68
72 72 72 72 72 72 73 73 74 74 76 77 77 77 77 75 74 73 71 70 70 68
73 73 73 73 75 74 73 74 74 75 74 76 76 73 71 73 72 71 69 69 67 65
71 74 74 74 74 74 74 75 75 75 76 75 77 71 70 71 73 70 68 68 67 63
68 67 66 66 66 68 70 71 74 75 75 76 76 66 66 70 70 68 67 67 67 67
69 66 65 64 64 64 67 66 68 71 71 70 71 65 65 66 66 66 66 66 68 67
70 67 65 64 64 64 64 65 69 66 66 66 68 65 63 66 66 66 66 67 66 66
69 66 65 66 64 64 65 63 65 65 65 66 66 64 62 64 68 67 66 65 65 67
Lifted_Index
-5 -5 -5 -5 -5 -5 -5 -5 -5 -6 -6 -6 -5 -4 -4 -4 -3 -3 -2 -2 -2 -1
-5 -5 -5 -5 -4 -5 -5 -5 -5 -6 -7 -6 -6 -5 -5 -4 -4 -3 -2 -1 -1 -1
-6 -6 -5 -5 -5 -4 -5 -6 -6 -6 -7 -7 -6 -6 -6 -5 -5 -4 -2 -1 -0 0
-6 -6 -6 -6 -5 -5 -5 -6 -7 -7 -7 -7 -7 -7 -6 -6 -6 -5 -3 -2 -0 1
-7 -7 -7 -6 -6 -6 -6 -6 -7 -8 -8 -8 -8 -8 -7 -7 -6 -5 -4 -2 -0 0
-8 -8 -7 -7 -6 -6 -6 -7 -7 -8 -8 -9 -9 -8 -8 -8 -7 -6 -5 -3 -1 -0
-8 -8 -8 -7 -7 -7 -7 -7 -7 -8 -8 -9 -9 -9 -9 -8 -8 -7 -6 -4 -3 -2
-8 -8 -8 -8 -8 -7 -7 -7 -7 -7 -8 -9 -9 -9 -9 -9 -8 -7 -6 -5 -4 -3
-8 -8 -8 -8 -8 -8 -8 -7 -7 -7 -8 -8 -9 -9 -9 -8 -7 -5 -4 -4 -3 -3
-7 -8 -9 -9 -9 -8 -8 -7 -7 -7 -8 -8 -9 -9 -8 -7 -6 -4 -4 -3 -2 -2
-6 -7 -8 -9 -8 -8 -7 -7 -7 -7 -7 -8 -8 -8 -8 -7 -5 -5 -4 -3 -2 -1
-4 -5 -6 -6 -7 -6 -6 -6 -6 -6 -6 -6 -6 -7 -6 -5 -5 -5 -4 -2 -1 -1
-2 -2 -3 -3 -4 -4 -4 -3 -3 -4 -4 -3 -3 -4 -5 -4 -4 -4 -3 -2 -1 -1
-1 -1 -1 -1 -1 -1 -2 -1 -1 -1 -2 -1 -0 -1 -4 -4 -4 -4 -3 -2 -1 -1